STARLINK-3317 (50156 NORAD) Tracking and Keplerian Element Data
This shows tracking and keplerian element data for the satellite.
Feedback or suggestion? Click here.
Element | Value |
Catalog | 50156 |
Name | STARLINK-3317 |
Epoch Orbit | 130 |
Epoch Day | 140.58334491 |
Epoch Year | 2022 |
RAAN | 5.052 |
Inclination | 53.2184 |
Eccentricity | 0.0001992 |
Argument of Perigee | 38.9567 |
Mean Anonmoly | 62.3482 |
Mean Motion | 15.08839997 |
Decay Rate | 2.339E-05 |
L1 | 1 50156U 21125A 22140.58334491 .00002339 00000+0 16501-3 0 9996 |
L2 | 2 50156 53.2184 5.0520 0001992 38.9567 62.3482 15.08839997 1301 |
Live tracking and technical data element details for STARLINK-3317 (NORAD 50156). STARLINK-3317 can be tracked NOW for your location showing map with azimuth and elevation plus other details from your city location.
Track the satellite on the map from your city or location and see movement details for azimuth, elevation, latitude, longitude, range, height, and movement on the map or in text.
IsCatalogInMostPopularTable: catalog: 50156, numindb: 21
Update: records affected: 1
GetName: 50156 STARLINK-3317
Hit Count: updated at: Mon, 23 May 2022 21:43:30 GMT